Location: eljas
(40.1958°N, 6.8661°W)
Time: 00:34:54
(UTC+02:00)

Amateur Radio Satellites - All Passes

Search period start: 01 May 2016 00:04
Search period end: 02 May 2016 00:04
Location: eljas, 40.1958°N, 6.8661°W

Satellite Date Start Highest point End Downlink Frequencies (MHz)
Time Altitude Azimuth
UKube-1 01 May 00:08:33 00:10:06 12° 62° (ENE) 00:11:38 .
AISAT 01 May 00:20:43 00:24:12 23° 67° (ENE) 00:27:42 437.250
ESTCUBE 1 01 May 00:28:05 00:32:09 35° 70° (ENE) 00:36:13 437.505/2401.250
DELFI C3 01 May 00:29:03 00:31:42 17° 267° (W) 00:34:22 145.870
Oscar 11 01 May 00:29:11 00:29:48 10° 270° (W) 00:30:24 145.826/435.025
AIST 2 01 May 00:29:17 00:32:07 18° 315° (NW) 00:34:59 435.215
Cosmos 2504 01 May 00:31:34 00:35:58 17° 295° (WNW) 00:40:20 435.465 / 435.565
FUNcube-1 01 May 00:36:09 00:37:36 11° 270° (W) 00:39:03 145.935
RS-15 01 May 00:38:35 00:49:53 76° 305° (NW) 01:01:53 29.354- 29.394
SPROUT 01 May 00:42:38 00:44:44 13° 64° (ENE) 00:46:50 437.525
50 SAT 01 May 00:51:43 00:55:16 49° 74° (ENE) 00:58:49 437.505
UNISAT 6 01 May 00:57:23 01:01:46 88° 108° (ESE) 01:06:02 437.425
AO-85 01 May 00:57:45 01:01:48 29° 248° (WSW) 01:05:33 145.980
CUBEBUG 1 01 May 01:03:50 01:08:07 60° 74° (ENE) 01:12:28 437.445
GONETS M04 01 May 01:04:03 01:09:43 19° 78° (ENE) 01:15:21
HUMSAT D 01 May 01:05:01 01:07:51 17° 267° (W) 01:10:40 437.325/437.525
NANOSAT C BR1 01 May 01:15:15 01:18:43 24° 95° (E) 01:22:08 145.865
TIGRISAT 01 May 01:15:54 01:20:12 60° 286° (WNW) 01:24:24 435.000
AIST 1 01 May 01:17:58 01:18:52 11° 83° (E) 01:19:47
VELOX 1 01 May 01:24:12 01:28:37 78° 257° (WSW) 01:33:05 145.980
TISAT 1 01 May 01:26:39 01:28:21 12° 63° (ENE) 01:30:03 437.305
BUGSAT 1 01 May 01:27:00 01:29:22 15° 92° (E) 01:31:41 437.445
DX 1 01 May 01:30:02 01:34:22 73° 257° (WSW) 01:38:46 434.975-435.025
ANTELSAT 01 May 01:40:09 01:43:59 31° 291° (WNW) 01:47:46 437.575/2403.000
UKube-1 01 May 01:41:17 01:45:35 66° 258° (WSW) 01:49:53 .
AISAT 01 May 01:56:30 02:00:29 32° 263° (W) 02:04:31 437.250
QB50P2 01 May 02:05:06 02:09:22 80° 284° (WNW) 02:13:35 145.880/145.840
ESTCUBE 1 01 May 02:05:39 02:09:02 21° 266° (W) 02:12:25 437.505/2401.250
POLYITAN 1 01 May 02:07:13 02:11:29 79° 283° (WNW) 02:15:41 437.675
DUCHIFAT 1 01 May 02:08:18 02:12:33 86° 288° (WNW) 02:16:45 145.980
POPSAT HIP 1 01 May 02:10:32 02:14:47 74° 285° (WNW) 02:18:59 437.405
QB50P1 01 May 02:14:03 02:18:16 66° 285° (WNW) 02:22:26 145.935-145.965
SPROUT 01 May 02:15:58 02:20:12 56° 260° (W) 02:24:28 437.525
CUSAT 1 01 May 02:18:10 02:21:01 12° 63° (ENE) 02:23:59 437.405
JAS-2 01 May 02:26:05 02:32:31 27° 92° (E) 02:38:55 435.910
BEESAT 01 May 02:26:44 02:28:24 12° 60° (ENE) 02:30:03 436.000
O/OREOS (USA 219) 01 May 02:27:30 02:31:45 38° 62° (ENE) 02:35:56 437.305
PCSat 01 May 02:33:17 02:38:22 39° 54° (NE) 02:43:25 145.827
Oscar 19 01 May 02:35:09 02:37:05 12° 89° (E) 02:39:01 437.125/150
CUBEBUG 1 01 May 02:43:14 02:44:48 12° 270° (W) 02:46:22 437.445
Cosmos 2499 01 May 02:48:34 02:55:15 46° 90° (E) 03:01:55 435.465 / 435.565
NANOSAT C BR1 01 May 02:50:49 02:54:24 27° 291° (WNW) 02:57:58 145.865
AIST 1 01 May 02:51:37 02:55:51 59° 279° (W) 03:00:09
RS-15 01 May 02:55:13 03:04:48 28° 333° (NNW) 03:14:49 29.354- 29.394
GONETS M04 01 May 02:56:27 03:05:19 85° 276° (W) 03:14:14
TISAT 1 01 May 02:59:16 03:03:28 61° 259° (W) 03:07:42 437.305
BUGSAT 1 01 May 03:00:57 03:04:57 44° 288° (WNW) 03:08:55 437.445
ITUPSAT 1 01 May 03:16:58 03:21:18 36° 69° (ENE) 03:25:38 437.325
SWISSCUBE 01 May 03:27:25 03:32:01 52° 72° (ENE) 03:36:38 437.505
Gurwin Techsat 1B 01 May 03:47:16 03:51:38 25° 95° (E) 03:55:57 435.225
CUSAT 1 01 May 03:57:04 04:04:05 66° 79° (E) 04:12:04 437.405
BEESAT 01 May 04:00:45 04:05:30 79° 257° (WSW) 04:10:18 436.000
O/OREOS (USA 219) 01 May 04:07:37 04:10:50 20° 259° (W) 04:14:03 437.305
JAS-2 01 May 04:10:13 04:17:51 64° 289° (WNW) 04:25:34 435.910
Oscar 19 01 May 04:11:44 04:16:58 77° 286° (WNW) 04:22:08 437.125/150
PCSat 01 May 04:16:58 04:21:36 29° 251° (WSW) 04:26:12 145.827
DANDE 01 May 04:17:36 04:23:44 48° 77° (ENE) 04:31:16 436.750
BEESAT 3 01 May 04:19:34 04:21:16 12° 42° (NE) 04:22:57 437.485
Cosmos 2499 01 May 04:42:30 04:48:32 29° 289° (WNW) 04:54:35 435.465 / 435.565
MOZHAYETS 4 01 May 04:53:38 04:57:32 28° 69° (ENE) 05:01:27
ITUPSAT 1 01 May 04:55:26 04:59:12 23° 265° (W) 05:02:58 437.325
GONETS M04 01 May 04:58:07 05:03:33 17° 299° (WNW) 05:09:01
KKS-1 01 May 05:07:06 05:11:31 66° 74° (ENE) 05:15:59 437.445
SWISSCUBE 01 May 05:07:14 05:10:06 16° 268° (W) 05:12:58 437.505
RS-15 01 May 05:14:25 05:23:03 22° 9° (N) 05:31:51 29.354- 29.394
ITAMSAT 1 01 May 05:24:59 05:30:12 87° 106° (ESE) 05:35:23 435.822/435.867
Gurwin Techsat 1B 01 May 05:26:45 05:31:40 39° 291° (WNW) 05:36:34 435.225
STARS 01 May 05:30:13 05:34:34 60° 73° (ENE) 05:38:58 437.465
AO-7 01 May 05:31:13 05:38:46 37° 98° (E) 05:46:17 29.400- 29.500
CUSAT 1 01 May 05:40:09 05:45:51 26° 272° (W) 05:52:03 437.405
BEESAT 3 01 May 05:55:32 05:59:29 77° 241° (WSW) 06:03:24 437.485
JAS-2 01 May 05:57:58 06:01:27 14° 307° (NW) 06:04:58 435.910
BEESAT 2 01 May 05:58:15 06:02:14 65° 56° (NE) 06:06:11 435.950
DANDE 01 May 06:00:47 06:06:27 32° 268° (W) 06:13:08 436.750
HORYU 2 01 May 06:26:38 06:30:14 24° 95° (E) 06:33:49 437.375
MOZHAYETS 4 01 May 06:30:47 06:34:39 27° 265° (W) 06:38:32
CUBESAT XI-V 01 May 06:32:06 06:36:13 34° 70° (ENE) 06:40:22 437.345
KKS-1 01 May 06:47:10 06:48:31 11° 270° (W) 06:49:51 437.445
ITAMSAT 1 01 May 07:06:54 07:08:54 12° 301° (WNW) 07:10:56 435.822/435.867
STARS 01 May 07:09:35 07:11:18 12° 269° (W) 07:13:02 437.465
AIST 2 01 May 07:11:22 07:15:01 29° 50° (NE) 07:18:39 435.215
Cubesat XI-IV 01 May 07:23:37 07:24:41 11° 89° (E) 07:25:44 437.490
AO-7 01 May 07:23:45 07:31:40 50° 296° (WNW) 07:39:36 29.400- 29.500
YUBILEINY 01 May 07:23:50 07:32:05 44° 75° (ENE) 07:40:17 435.215
BRITE-PL 01 May 07:24:37 07:27:20 13° 88° (E) 07:30:02 437.365/2234.400
NOAA 15 01 May 07:27:34 07:31:22 20° 93° (E) 07:35:08 137.62
RS-15 01 May 07:28:38 07:40:07 43° 42° (NE) 07:51:39 29.354- 29.394
BEESAT 2 01 May 07:39:01 07:39:31 10° 252° (WSW) 07:40:02 435.950
LilacSat-2 01 May 07:39:27 07:40:05 10° 90° (E) 07:40:41 437.200
HORYU 2 01 May 08:02:56 08:06:47 30° 291° (WNW) 08:10:37 437.375
Cosmos 2491 01 May 08:05:37 08:13:41 42° 87° (E) 08:21:48 435.465 / 435.565
CUBESAT XI-V 01 May 08:10:03 08:13:39 23° 266° (W) 08:17:17 437.345
NOAA 18 01 May 08:10:30 08:15:41 42° 99° (E) 08:20:49 137.9125
SO-50 01 May 08:11:11 08:13:51 15° 108° (ESE) 08:16:32 436.795
CUTE-I 01 May 08:16:38 08:21:33 37° 98° (E) 08:26:26 437.470
Cosmos 2504 01 May 08:26:53 08:33:10 27° 71° (ENE) 08:39:44 435.465 / 435.565
STRAND 1 01 May 08:32:39 08:37:37 57° 72° (ENE) 08:42:37 437.568
GOMX 1 01 May 08:46:05 08:51:10 38° 96° (E) 08:56:02 467.674
M-CUBED/EXP-1 PRIME 01 May 08:49:55 08:52:49 20° 98° (E) 08:55:34 437.505
AIST 2 01 May 08:49:57 08:53:25 26° 247° (WSW) 08:56:52 435.215
ISS 01 May 08:50:07 08:52:19 17° 131° (SE) 08:54:31 145.825
DOVE 4 01 May 08:53:58 08:57:53 22° 92° (E) 09:01:38 437.250
PRISM 01 May 08:56:21 08:59:05 18° 66° (ENE) 09:01:49 437.425
Cubesat XI-IV 01 May 09:00:03 09:05:24 87° 284° (WNW) 09:10:44 437.490
BRITE-PL 01 May 09:00:39 09:06:23 82° 284° (WNW) 09:12:01 437.365/2234.400
NOAA 15 01 May 09:06:15 09:11:24 51° 289° (WNW) 09:16:32 137.62
AUBIESAT-1 01 May 09:10:09 09:13:31 27° 100° (E) 09:16:40 437.475
LilacSat-2 01 May 09:10:59 09:14:41 50° 286° (WNW) 09:18:21 437.200
AO-7 01 May 09:20:32 09:22:28 11° 317° (NW) 09:24:24 29.400- 29.500
YUBILEINY 01 May 09:20:54 09:28:43 39° 274° (W) 09:36:33 435.215
CUTE 1.7 + AOD 2 01 May 09:26:24 09:27:25 11° 90° (E) 09:28:26 437.475
RS-15 01 May 09:41:16 09:53:23 67° 246° (WSW) 10:05:27 29.354- 29.394
SO-50 01 May 09:48:54 09:53:47 68° 303° (WNW) 09:58:42 436.795
NOAA 18 01 May 09:51:41 09:56:05 26° 296° (WNW) 10:00:27 137.9125
CINEMA 3 01 May 09:53:05 09:56:55 25° 94° (E) 10:00:35 145.822/145.860
SEEDS 01 May 09:55:57 09:58:48 18° 93° (E) 10:01:39 437.485
CUTE-I 01 May 09:56:59 10:01:25 28° 294° (WNW) 10:05:51 437.470
Cosmos 2491 01 May 10:02:14 10:10:27 42° 286° (WNW) 10:18:46 435.465 / 435.565
COMPASS 1 01 May 10:03:36 10:06:04 15° 92° (E) 10:08:32 437.405
HO-68 01 May 10:09:43 10:16:29 43° 99° (E) 10:23:13 435.675
STRAND 1 01 May 10:14:01 10:17:09 16° 268° (W) 10:20:17 437.568
Cosmos 2504 01 May 10:19:31 10:26:52 57° 268° (W) 10:34:44 435.465 / 435.565
M-CUBED/EXP-1 PRIME 01 May 10:23:57 10:27:27 29° 296° (WNW) 10:30:41 437.505
GOMX 1 01 May 10:24:24 10:29:00 28° 293° (WNW) 10:33:28 467.674
ISS 01 May 10:25:19 10:28:31 50° 327° (NNW) 10:31:42 145.825
CANX-2 01 May 10:26:12 10:30:24 64° 101° (E) 10:34:35 2200.000
PRISM 01 May 10:30:22 10:34:06 36° 262° (W) 10:37:55 437.425
DOVE 4 01 May 10:30:52 10:35:46 43° 289° (WNW) 10:40:24 437.250
AAUSAT CUBESAT 2 01 May 10:35:37 10:39:14 28° 96° (E) 10:42:49 437.432
Oscar 11 01 May 10:38:40 10:40:27 12° 91° (E) 10:42:15 145.826/435.025
TIGRISAT 01 May 10:40:19 10:41:50 11° 62° (ENE) 10:43:21 435.000
BRITE-PL 01 May 10:41:42 10:43:56 12° 301° (WNW) 10:46:08 437.365/2234.400
Cubesat XI-IV 01 May 10:42:50 10:44:39 12° 302° (WNW) 10:46:28 437.490
AUBIESAT-1 01 May 10:44:53 10:47:52 21° 299° (WNW) 10:50:41 437.475
FUNcube-1 01 May 10:47:24 10:48:59 12° 90° (E) 10:50:35 145.935
UWE-3 01 May 10:51:36 10:54:57 22° 94° (E) 10:58:14 435.000/436.395/437.385
CUBEBUG 2 01 May 10:54:13 10:58:12 34° 97° (E) 11:02:03 437.445
CUTE 1.7 + AOD 2 01 May 10:59:28 11:03:38 60° 285° (WNW) 11:07:47 437.475
ANTELSAT 01 May 11:02:11 11:05:36 21° 66° (ENE) 11:08:59 437.575/2403.000
ZACube-1 01 May 11:26:36 11:30:31 36° 97° (E) 11:34:21 437.345
CINEMA 3 01 May 11:29:58 11:34:04 30° 291° (WNW) 11:37:58 145.822/145.860
SEEDS 01 May 11:30:47 11:34:37 36° 288° (WNW) 11:38:27 437.485
SO-50 01 May 11:33:07 11:35:12 12° 324° (NW) 11:37:17 436.795
COMPASS 1 01 May 11:37:54 11:41:49 41° 288° (WNW) 11:45:43 437.405
UNISAT 6 01 May 11:54:59 11:59:38 72° 75° (ENE) 12:04:14 437.425
HO-68 01 May 11:57:40 12:04:02 36° 297° (WNW) 12:10:24 435.675
RS-15 01 May 11:58:10 12:03:24 14° 266° (W) 12:08:38 29.354- 29.394
ISS 01 May 12:03:40 12:05:34 14° 346° (NNW) 12:07:28 145.825
CANX-2 01 May 12:04:22 12:05:43 11° 297° (WNW) 12:07:04 2200.000
DELFI C3 01 May 12:05:44 12:09:40 59° 100° (E) 12:13:36 145.870
NANOSAT C BR1 01 May 12:07:25 12:10:19 18° 66° (ENE) 12:13:13 145.865
AAUSAT CUBESAT 2 01 May 12:11:21 12:14:34 22° 292° (WNW) 12:17:48 437.432
Oscar 11 01 May 12:12:42 12:16:55 55° 286° (WNW) 12:21:07 145.826/435.025
TIGRISAT 01 May 12:13:13 12:17:54 77° 258° (WSW) 12:22:31 435.000
BUGSAT 1 01 May 12:17:56 12:18:51 11° 62° (ENE) 12:19:47 437.445
FUNcube-1 01 May 12:21:29 12:25:35 52° 286° (WNW) 12:29:37 145.935
PHONESAT 2.4 01 May 12:25:45 12:28:29 28° 155° (SSE) 12:31:14 2401.200-2431.200
UWE-3 01 May 12:27:44 12:31:26 29° 290° (WNW) 12:35:03 435.000/436.395/437.385
CUBEBUG 2 01 May 12:31:26 12:34:34 20° 294° (WNW) 12:37:38 437.445
ANTELSAT 01 May 12:37:39 12:42:02 40° 262° (W) 12:46:24 437.575/2403.000
Cosmos 2499 01 May 12:40:16 12:44:39 16° 64° (ENE) 12:49:10 435.465 / 435.565
HUMSAT D 01 May 12:47:20 12:51:26 78° 102° (ESE) 12:55:30 437.325/437.525
CUBEBUG 1 01 May 12:55:09 12:56:47 12° 90° (E) 12:58:23 437.445
QB50P2 01 May 12:56:43 13:00:59 69° 75° (ENE) 13:05:16 145.880/145.840
POLYITAN 1 01 May 12:58:50 13:03:06 71° 75° (ENE) 13:07:24 437.675
DUCHIFAT 1 01 May 12:59:14 13:03:26 63° 75° (ENE) 13:07:40 145.980
AIST 1 01 May 12:59:20 13:03:15 30° 76° (ENE) 13:07:09
POPSAT HIP 1 01 May 13:01:59 13:06:15 75° 76° (ENE) 13:10:34 437.405
ZACube-1 01 May 13:03:39 13:06:31 18° 294° (WNW) 13:09:22 437.345
QB50P1 01 May 13:05:25 13:09:42 83° 76° (ENE) 13:14:00 145.935-145.965
GONETS M04 01 May 13:07:47 13:16:12 48° 75° (ENE) 13:24:29
VELOX 1 01 May 13:15:39 13:19:01 21° 94° (E) 13:22:21 145.980
DX 1 01 May 13:19:34 13:22:48 20° 94° (E) 13:26:01 434.975-435.025
UKube-1 01 May 13:29:40 13:32:58 21° 95° (E) 13:36:13 .
AO-85 01 May 13:32:17 13:34:57 14° 106° (ESE) 13:37:38 145.980
UNISAT 6 01 May 13:35:38 13:36:47 11° 270° (W) 13:37:56 437.425
NANOSAT C BR1 01 May 13:41:45 13:45:44 39° 261° (W) 13:49:47 145.865
ISS 01 May 13:41:48 13:43:07 12° 6° (N) 13:44:26 145.825
DELFI C3 01 May 13:43:00 13:44:02 11° 296° (WNW) 13:45:04 145.870
AISAT 01 May 13:46:44 13:51:04 47° 100° (E) 13:55:22 437.250
BUGSAT 1 01 May 13:49:25 13:53:36 72° 258° (WSW) 13:57:53 437.445
Oscar 19 01 May 13:50:49 13:54:17 18° 63° (ENE) 13:57:44 437.125/150
50 SAT 01 May 13:55:37 13:59:15 72° 101° (E) 14:02:55 437.505
ESTCUBE 1 01 May 13:57:11 14:01:45 84° 104° (ESE) 14:06:17 437.505/2401.250
PHONESAT 2.4 01 May 14:02:00 14:05:09 84° 174° (S) 14:08:20 2401.200-2431.200
SPROUT 01 May 14:02:59 14:06:33 25° 95° (E) 14:10:04 437.525
JAS-2 01 May 14:21:42 14:27:25 57° 70° (ENE) 14:33:54 435.910
CUBEBUG 1 01 May 14:29:03 14:33:27 61° 286° (WNW) 14:37:48 437.445
Cosmos 2499 01 May 14:31:03 14:38:47 85° 83° (E) 14:47:07 435.465 / 435.565
AIST 1 01 May 14:37:18 14:40:39 21° 272° (W) 14:44:00
DUCHIFAT 1 01 May 14:38:39 14:39:32 11° 270° (W) 14:40:24 145.980
TISAT 1 01 May 14:44:30 14:47:43 21° 94° (E) 14:50:53 437.305
AO-7 01 May 14:45:16 14:46:33 10° 42° (NE) 14:47:51 29.400- 29.500
VELOX 1 01 May 14:51:29 14:55:33 35° 290° (WNW) 14:59:37 145.980
DX 1 01 May 14:55:03 14:59:05 36° 290° (WNW) 15:03:04 434.975-435.025
GONETS M04 01 May 15:05:01 15:12:44 37° 275° (W) 15:20:25
UKube-1 01 May 15:05:09 15:09:04 33° 290° (WNW) 15:12:57 .
ITAMSAT 1 01 May 15:05:38 15:08:41 16° 61° (ENE) 15:11:45 435.822/435.867
Gurwin Techsat 1B 01 May 15:07:37 15:12:30 38° 69° (ENE) 15:17:24 435.225
AO-85 01 May 15:09:19 15:14:48 83° 302° (WNW) 15:20:15 145.980
ISS 01 May 15:17:35 15:20:27 27° 27° (NNE) 15:23:17 145.825
AISAT 01 May 15:24:19 15:27:09 17° 296° (WNW) 15:29:58 437.250
Oscar 19 01 May 15:28:03 15:33:07 57° 259° (W) 15:38:14 437.125/150
SWISSCUBE 01 May 15:29:46 15:32:09 14° 91° (E) 15:34:31 437.505
ESTCUBE 1 01 May 15:37:30 15:37:51 10° 299° (WNW) 15:38:12 437.505/2401.250
SPROUT 01 May 15:38:49 15:42:27 27° 291° (WNW) 15:46:03 437.525
PHONESAT 2.4 01 May 15:38:54 15:42:04 89° 181° (S) 15:45:15 2401.200-2431.200
BEESAT 01 May 16:01:52 16:05:53 27° 96° (E) 16:09:54 436.000
JAS-2 01 May 16:08:39 16:13:02 21° 271° (W) 16:17:48 435.910
TISAT 1 01 May 16:19:39 16:23:24 31° 290° (WNW) 16:27:07 437.305
Cosmos 2499 01 May 16:26:18 16:30:58 17° 280° (W) 16:35:49 435.465 / 435.565
AO-7 01 May 16:29:29 16:37:18 49° 64° (ENE) 16:45:08 29.400- 29.500
O/OREOS (USA 219) 01 May 16:38:51 16:43:16 50° 107° (ESE) 16:47:44 437.305
SO-50 01 May 16:42:00 16:44:42 15° 39° (NE) 16:47:20 436.795
ITAMSAT 1 01 May 16:42:27 16:47:36 66° 258° (WSW) 16:52:45 435.822/435.867
Gurwin Techsat 1B 01 May 16:48:09 16:52:31 26° 265° (W) 16:56:56 435.225
AO-85 01 May 16:52:40 16:56:05 17° 320° (NW) 16:59:29 145.980
ISS 01 May 16:53:54 16:56:58 38° 223° (SW) 17:00:01 145.825
ITUPSAT 1 01 May 16:55:06 16:59:54 87° 288° (WNW) 17:04:41 437.325
KKS-1 01 May 17:00:26 17:02:31 13° 91° (E) 17:04:36 437.445
CUSAT 1 01 May 17:02:16 17:05:24 50° 94° (E) 17:09:28 437.405
SWISSCUBE 01 May 17:05:37 17:10:19 60° 287° (WNW) 17:15:00 437.505
PCSat 01 May 17:14:23 17:19:22 39° 111° (ESE) 17:24:23 145.827
PHONESAT 2.4 01 May 17:15:55 17:18:48 32° 203° (SSW) 17:21:40 2401.200-2431.200
STARS 01 May 17:22:39 17:23:58 11° 90° (E) 17:25:18 437.465
HORYU 2 01 May 17:24:21 17:27:48 22° 66° (ENE) 17:31:14 437.375
DANDE 01 May 17:29:39 17:32:07 30° 92° (E) 17:35:02 436.750
BEESAT 01 May 17:39:29 17:43:39 31° 291° (WNW) 17:47:48 436.000
NOAA 18 01 May 18:00:30 18:01:55 11° 56° (ENE) 18:03:19 137.9125
Cosmos 2491 01 May 18:17:15 18:23:21 20° 63° (ENE) 18:29:24 435.465 / 435.565
O/OREOS (USA 219) 01 May 18:19:52 18:22:58 18° 304° (NW) 18:26:05 437.305
SO-50 01 May 18:21:08 18:25:53 88° 234° (SW) 18:30:26 436.795
AO-7 01 May 18:22:39 18:30:10 38° 262° (W) 18:37:44 29.400- 29.500
MOZHAYETS 4 01 May 18:25:20 18:29:54 73° 101° (E) 18:34:28
KKS-1 01 May 18:35:02 18:39:26 56° 287° (WNW) 18:43:47 437.445
BRITE-PL 01 May 18:35:42 18:37:49 13° 59° (ENE) 18:40:00 437.365/2234.400
Cubesat XI-IV 01 May 18:43:39 18:47:18 19° 63° (ENE) 18:50:58 437.490
NOAA 15 01 May 18:46:52 18:51:23 30° 67° (ENE) 18:55:57 137.62
STARS 01 May 18:56:22 19:00:45 63° 286° (WNW) 19:05:04 437.465
PCSat 01 May 18:58:03 19:02:49 31° 309° (NW) 19:07:38 145.827
HORYU 2 01 May 19:00:04 19:04:09 34° 262° (W) 19:08:14 437.375
M-CUBED/EXP-1 PRIME 01 May 19:34:35 19:38:40 30° 64° (ENE) 19:42:45 437.505
NOAA 18 01 May 19:36:08 19:41:39 78° 74° (ENE) 19:47:10 137.9125
CUTE-I 01 May 19:37:48 19:43:01 58° 72° (ENE) 19:48:14 437.470
BEESAT 3 01 May 19:46:40 19:49:31 19° 112° (ESE) 19:52:23 437.485
LilacSat-2 01 May 19:51:53 19:55:44 69° 76° (ENE) 19:59:36 437.200
BEESAT 2 01 May 19:51:57 19:53:43 13° 109° (ESE) 19:55:30 435.950
GOMX 1 01 May 19:53:13 19:57:44 36° 69° (ENE) 20:02:32 467.674
AUBIESAT-1 01 May 19:54:29 19:58:48 39° 66° (ENE) 20:03:04 437.475
DOVE 4 01 May 19:58:31 20:02:21 22° 65° (ENE) 20:06:18 437.250
MOZHAYETS 4 01 May 20:04:51 20:06:27 12° 298° (WNW) 20:08:02
CUBESAT XI-V 01 May 20:05:43 20:10:26 89° 283° (WNW) 20:15:09 437.345
BRITE-PL 01 May 20:10:45 20:15:28 78° 258° (WSW) 20:20:38 437.365/2234.400
Cosmos 2491 01 May 20:12:30 20:21:22 86° 264° (W) 20:30:08 435.465 / 435.565
Cubesat XI-IV 01 May 20:21:41 20:26:55 57° 259° (W) 20:32:10 437.490
YUBILEINY 01 May 20:23:48 20:32:10 52° 89° (E) 20:40:28 435.215
NOAA 15 01 May 20:26:21 20:31:04 33° 263° (W) 20:35:50 137.62
HO-68 01 May 20:38:12 20:44:17 32° 62° (ENE) 20:50:23 435.675
STRAND 1 01 May 20:44:32 20:48:15 20° 93° (E) 20:51:57 437.568
SEEDS 01 May 20:48:33 20:50:16 12° 64° (ENE) 20:51:59 437.485
CINEMA 3 01 May 20:53:37 20:57:38 25° 67° (ENE) 21:01:40 145.822/145.860
COMPASS 1 01 May 20:56:05 20:56:42 10° 63° (ENE) 20:57:18 437.405
Cosmos 2504 01 May 21:06:52 21:11:56 21° 82° (E) 21:16:55 435.465 / 435.565
M-CUBED/EXP-1 PRIME 01 May 21:08:57 21:13:06 30° 259° (W) 21:17:15 437.505
CANX-2 01 May 21:18:19 21:22:16 41° 73° (ENE) 21:26:15 2200.000
CUTE-I 01 May 21:20:01 21:23:25 17° 268° (W) 21:26:50 437.470
NOAA 18 01 May 21:20:19 21:22:51 13° 270° (W) 21:25:24 137.9125
BEESAT 3 01 May 21:23:21 21:26:59 35° 308° (NW) 21:30:39 437.485
AAUSAT CUBESAT 2 01 May 21:26:03 21:28:53 18° 67° (ENE) 21:31:44 437.432
BEESAT 2 01 May 21:27:12 21:31:06 53° 305° (NW) 21:35:02 435.950
AUBIESAT-1 01 May 21:29:41 21:33:19 22° 261° (W) 21:36:57 437.475
GOMX 1 01 May 21:31:45 21:35:52 26° 267° (W) 21:40:14 467.674
DOVE 4 01 May 21:34:48 21:39:38 47° 262° (W) 21:44:43 437.250
FUNcube-1 01 May 21:43:21 21:44:30 11° 62° (ENE) 21:45:38 145.935
UWE-3 01 May 21:48:03 21:51:24 20° 67° (ENE) 21:54:43 435.000/436.395/437.385
CUTE 1.7 + AOD 2 01 May 21:51:07 21:55:21 87° 77° (ENE) 21:59:35 437.475
CUBEBUG 2 01 May 21:51:18 21:55:25 30° 70° (ENE) 21:59:31 437.445
RS-15 01 May 21:55:39 22:03:14 21° 99° (E) 22:11:02 29.354- 29.394
AO-85 01 May 22:03:47 22:05:51 12° 35° (NE) 22:07:50 145.980
Cosmos 2491 01 May 22:12:00 22:16:47 16° 284° (WNW) 22:21:34 435.465 / 435.565
PRISM 01 May 22:12:20 22:16:00 29° 97° (E) 22:19:39 437.425
SEEDS 01 May 22:21:23 22:25:29 57° 260° (W) 22:29:37 437.485
YUBILEINY 01 May 22:21:30 22:29:13 34° 289° (WNW) 22:36:56 435.215
ZACube-1 01 May 22:21:37 22:25:32 29° 70° (ENE) 22:29:25 437.345
STRAND 1 01 May 22:22:45 22:27:38 47° 289° (WNW) 22:32:30 437.568
HO-68 01 May 22:24:46 22:31:41 51° 259° (W) 22:38:37 435.675
COMPASS 1 01 May 22:27:34 22:31:41 68° 259° (W) 22:35:49 437.405
CINEMA 3 01 May 22:29:52 22:34:31 38° 263° (W) 22:39:13 145.822/145.860
AIST 2 01 May 22:45:59 22:50:06 72° 120° (ESE) 22:54:15 435.215
DELFI C3 01 May 22:51:23 22:54:52 31° 71° (ENE) 22:58:21 145.870
CANX-2 01 May 22:55:44 22:58:19 16° 268° (W) 23:00:54 2200.000
Cosmos 2504 01 May 22:57:21 23:04:36 64° 280° (W) 23:11:43 435.465 / 435.565
AAUSAT CUBESAT 2 01 May 23:00:22 23:04:08 34° 263° (W) 23:07:55 437.432
Oscar 11 01 May 23:06:23 23:10:42 79° 258° (WSW) 23:15:02 145.826/435.025
FUNcube-1 01 May 23:15:35 23:20:07 77° 257° (WSW) 23:24:37 145.935
UWE-3 01 May 23:23:09 23:27:33 41° 262° (W) 23:31:55 435.000/436.395/437.385
CUBEBUG 2 01 May 23:27:57 23:31:59 27° 265° (W) 23:35:59 437.445
HUMSAT D 01 May 23:37:44 23:41:49 49° 73° (ENE) 23:45:52 437.325/437.525
AO-85 01 May 23:42:32 23:47:20 72° 57° (ENE) 23:51:40 145.980
PRISM 01 May 23:47:54 23:51:10 22° 292° (WNW) 23:54:24 437.425
UNISAT 6 01 May 23:48:58 23:51:23 15° 91° (E) 23:53:46 437.425
